Terminal Aerodrome Forecast
Issued by NWS Cheyenne, WY

Home | Current Version | Previous Version | Text Only | Print | Product List | Glossary On
Versions: 1 2 3 4 5 6 7 8 9 10 11 12 13 14 15 16 17 18 19 20 21 22 23 24 25 26
000
FTUS45 KCYS 181739
TAFCYS
TAF
KCYS 181739Z 1818/1918 28012G19KT P6SM SCT300
     FM182300 27009KT P6SM SCT300=

USA.gov is the U.S. government's official web portal to all federal, state and local government web resources and services.